Tracking 28920 objects as of 24-May-2024
HD Live streaming from Space Station
objects crossing your sky now

ATLAS 75E DEB

Track ATLAS 75E DEB now!
10-day predictions


NORAD ID: 25842
Int'l Code: 1983-072C
Perigee: 1,637.2 km
Apogee: 19,606.2 km
Inclination: 65.3 °
Period: 367.4 minutes
Semi major axis: 16992 km
RCS: 0.0797 m2 (small)
Launch date: July 14, 1983
Source: United States (US)
Launch site: AIR FORCE WESTERN TEST RANGE (AFWTR)

Note: This is SATELLITE DEBRIS
Your satellite tracking list
Your tracking list is empty




NASA's NSSDC Master Catalog

Two Line Element Set (TLE):
1 25842U 83072C   24140.98612330 -.00000029  00000-0  00000-0 0  9996
2 25842  65.2802   2.9025 5287285 125.8788 357.9666  3.91931404 45780
Source of the keplerian elements: AFSPC